Content
SEND FEEDBACK

Daily
Averages
Monthly
Summary
Italy

CASALE SMERALDI, ITALY


Home > Europe > Italy
Elevation: 344 feet     Latitude: 41 46N     Longitude: 012 34E

WEATHER
 
SELECT A DAY
Number of Records: 290,303;   Date Range: 7/1/96 - 11/25/14
 
SHARE

PRINT THIS DATA

[ ← Previous Day ]
WEATHER ALMANAC - JANUARY 31, 2013
[ Next Day → ]
[ °C ]   °F
Weather ElementAverageHighLow
Temperature52 °F62.6 °F (3:45 pm)42.8 °F (6:15 am)
Dewpoint45.5 °F50 °F (6:15 pm)39.2 °F (7:15 am)
Humidity79.7 %94 % (9:15 pm)52 % (3:45 pm)
Barometer30.15 in30.18 in (10:45 am)30.09 in (3:45 am)
Wind Speed4.1 mph10.4 mph (9:15 pm)
Weather ElementAverage
Visibility6.1 mi
Wind DirectionSE (138.9 °)

Weather ElementTotal
Precipitation---
Heating Degree Days12.3 (Base 65)
Growing Degree Days2.7 (Base 50)
Averaged from 47 records on January 31, 2013
WEATHER CONDITIONS BREAKOUT
WIND DIRECTION BREAKOUT
WEATHER BY HOUR - JANUARY 31, 2013
[ °C ]   °F
Local TimeTemperatureDewpointHumidityBarometerVisibilityWind DirectionWind SpeedGust SpeedPrecipitationEventsConditions
12:45 AM51.8 °F48.2 °F88 %30.15 in6.2 miSSE (160°)2.3 mphMostly Cloudy
1:15 AM51.8 °F48.2 °F88 %30.15 in6.2 miSouth (180°)2.3 mphMostly Cloudy
1:45 AM51.8 °F48.2 °F88 %30.12 in6.2 miSouth (180°)2.3 mphMostly Cloudy
2:15 AM51.8 °F48.2 °F88 %30.12 in6.2 miSE (130°)2.3 mphMostly Cloudy
2:45 AM50.0 °F46.4 °F87 %30.12 in6.2 miSE (140°)3.5 mphMostly Cloudy
3:15 AM50.0 °F46.4 °F87 %30.12 in6.2 miSSE (160°)4.6 mphMostly Cloudy
3:45 AM50.0 °F46.4 °F87 %30.09 in6.2 miCalmMostly Cloudy
4:15 AM48.2 °F46.4 °F93 %30.09 in6.2 miSSW (210°)1.2 mphMostly Cloudy
4:45 AM48.2 °F44.6 °F87 %30.09 in6.2 miNNE (20°)1.2 mphScattered Clouds
5:15 AM46.4 °F42.8 °F87 %30.09 in6.2 miNorth (10°)2.3 mphPartly Cloudy
5:45 AM44.6 °F41.0 °F87 %30.12 in6.2 miCalmPartly Cloudy
6:15 AM42.8 °F41.0 °F93 %30.12 in6.2 miESE (120°)1.2 mphPartly Cloudy
6:45 AM42.8 °F41.0 °F93 %30.12 in6.2 miNNE (30°)2.3 mphPartly Cloudy
7:15 AM42.8 °F39.2 °F87 %30.15 in6.2 miNE (40°)2.3 mphPartly Cloudy
7:45 AM42.8 °F39.2 °F87 %30.15 in6.2 miNNE (30°)2.3 mphPartly Cloudy
8:15 AM42.8 °F39.2 °F87 %30.15 in6.2 miNorth (10°)2.3 mphPartly Cloudy
8:45 AM44.6 °F41.0 °F87 %30.15 in6.2 miCalmPartly Cloudy
9:15 AM48.2 °F44.6 °F87 %30.15 in6.2 miNE (50°)3.5 mphPartly Cloudy
9:45 AM48.2 °F44.6 °F87 %30.15 in6.2 miNNE (30°)5.8 mphPartly Cloudy
10:15 AM50.0 °F44.6 °F82 %30.15 in6.2 miNNE (30°)5.8 mphPartly Cloudy
10:45 AM51.8 °F44.6 °F76 %30.18 inNNE (30°)4.6 mphClear
11:15 AM55.4 °F46.4 °F72 %30.18 inNNW (340°)1.2 mphClear
11:45 AM55.4 °F46.4 °F72 %30.18 in6.2 miNorth (350°)4.6 mphPartly Cloudy
12:15 PM59.0 °F48.2 °F67 %30.18 in6.2 miNNE (30°)5.8 mphPartly Cloudy
12:45 PM59.0 °F46.4 °F63 %30.18 in6.2 miNorth (360°)4.6 mphPartly Cloudy
1:15 PM59.0 °F44.6 °F59 %30.18 in6.2 miNorth (10°)5.8 mphPartly Cloudy
1:45 PM60.8 °F46.4 °F59 %30.18 inNNW (330°)3.5 mphClear
2:15 PM60.8 °F44.6 °F55 %30.15 in6.2 miNE (40°)2.3 mphScattered Clouds
2:45 PM59.0 °F42.8 °F55 %30.15 in6.2 miEast (80°)2.3 mphScattered Clouds
3:15 PM59.0 °F42.8 °F55 %30.15 in6.2 miSSE (160°)2.3 mphScattered Clouds
3:45 PM62.6 °F44.6 °F52 %30.15 in6.2 miSouth (180°)1.2 mphMostly Cloudy
4:15 PM62.6 °F46.4 °F55 %30.15 in6.2 miWSW (240°)5.8 mphMostly Cloudy
4:45 PM50.0 °F41.0 °F71 %30.15 in6.2 miSW (230°)5.8 mphScattered Clouds
5:15 PM57.2 °F48.2 °F72 %30.15 in6.2 miSouth (190°)5.8 mphScattered Clouds
5:45 PM55.4 °F48.2 °F77 %30.18 in6.2 miSouth (170°)4.6 mphMostly Cloudy
6:15 PM55.4 °F50.0 °F82 %30.15 inSSW (200°)4.6 mphClear
6:45 PM55.4 °F48.2 °F77 %30.15 inSSW (200°)4.6 mphClear
7:15 PM53.6 °F48.2 °F82 %30.15 inSSW (210°)6.9 mphClear
7:45 PM51.8 °F48.2 °F88 %30.15 inSSW (200°)8.1 mphClear
8:15 PM51.8 °F48.2 °F88 %30.15 inSSW (200°)9.2 mphClear
8:45 PM51.8 °F48.2 °F88 %30.15 in6.2 miSSW (210°)9.2 mphPartly Cloudy
9:15 PM51.8 °F50.0 °F94 %30.15 inSouth (190°)10.4 mphClear
9:45 PM51.8 °F48.2 °F88 %30.15 in5.0 miSSW (200°)10.4 mphPartly Cloudy
10:15 PM51.8 °F48.2 °F88 %30.15 in4.3 miSouth (180°)6.9 mphPartly Cloudy
10:45 PM51.8 °F48.2 °F88 %30.15 in5.0 miSSE (150°)6.9 mph
11:15 PM51.8 °F46.4 °F82 %30.15 in6.2 miSSE (160°)3.5 mphPartly Cloudy
11:45 PM50.0 °F44.6 °F82 %30.15 in6.2 miSSE (160°)3.5 mphPartly Cloudy
Hourly data recorded from LIRA, located miles away from Casale Smeraldi, Italy







STORIES FROM OUR PARTNERS